Weather History for Niagara Falls, NY

Change the Weather History Date:

Wednesday, March 26, 2014

  Actual Average Record
Temperature  
Mean Temperature 18 °F -  
Max Temperature 24 °F 43 °F 68 °F (2007)
Min Temperature 14 °F 29 °F 8 °F (2011)
Degree Days  
Heating Degree Days 46    
Moisture  
Dew Point 5 °F    
Average Humidity 58    
Maximum Humidity 68    
Minimum Humidity 42    
Precipitation  
Precipitation 0.00 in - - ()
Sea Level Pressure  
Sea Level Pressure 30.23 in    
Wind  
Wind Speed 15 mph (WNW)    
Max Wind Speed 20 mph    
Max Gust Speed 28 mph    
Visibility 8 miles    
Events Snow    
Averages and records for this station are not official NWS values.
T = Trace of Precipitation, MM = Missing Value Source: NWS Daily Summary

Daily Weather History Graph

Daily Weather History Graph

Search for Another Location

Airport:

Trip Planner

Search our weather history database for the weather conditions in past years. The results will help you decide how hot, cold, wet, or windy it might be!

Date:

Astronomy

Mar. 26, 2014 Rise Set
Actual Time 7:08 AM EDT 7:35 PM EDT
Civil Twilight 6:39 AM EDT 8:03 PM EDT
Nautical Twilight 6:06 AM EDT 8:37 PM EDT
Astronomical Twilight 5:31 AM EDT 9:11 PM EDT
Moon 4:22 AM EDT (3/26) 3:05 PM EDT (3/26)
Length of Visible Light 13h 23m
Length of Day
12h 26m
Waning Crescent, 22% of the Moon is Illuminated
Mar 26
Waning Crescent
Mar 30
New
Apr 7
First Quarter
Apr 15
Full
Apr 22
Last Quarter

Hourly Weather History & Observations

Time (EDT) Temp. Windchill Dew Point Humidity Pressure Visibility Wind Dir Wind Speed Gust Speed Precip Events Conditions
12:53 AM 21.0 °F 6.2 °F 8.1 °F 57% 30.08 in 10.0 mi NW 18.4 mph 25.3 mph N/A   Scattered Clouds
1:53 AM 19.0 °F 5.0 °F 5.0 °F 54% 30.10 in 10.0 mi NW 15.0 mph - N/A   Clear
2:53 AM 17.1 °F 3.0 °F 6.1 °F 62% 30.12 in 10.0 mi NW 13.8 mph - N/A   Clear
3:53 AM 16.0 °F 1.7 °F 5.0 °F 62% 30.13 in 10.0 mi WNW 13.8 mph - N/A   Scattered Clouds
4:53 AM 15.1 °F 0.5 °F 5.0 °F 64% 30.14 in 10.0 mi WNW 13.8 mph - N/A   Clear
5:53 AM 14.0 °F -0.2 °F 3.0 °F 62% 30.17 in 10.0 mi WNW 12.7 mph - N/A   Partly Cloudy
6:10 AM 15.1 °F -0.6 °F 3.9 °F 61% 30.11 in 10.0 mi WNW 16.1 mph - N/A   Mostly Cloudy
6:53 AM 15.1 °F 1.1 °F 5.0 °F 64% 30.19 in 10.0 mi NW 12.7 mph - N/A   Overcast
7:01 AM 15.1 °F -0.6 °F 5.0 °F 64% 30.14 in 9.0 mi NW 16.1 mph 23.0 mph N/A   Overcast
7:05 AM 15.1 °F -1.1 °F 5.0 °F 64% 30.14 in 7.0 mi NW 17.3 mph - 0.00 in Snow Light Snow
7:32 AM 15.1 °F -1.1 °F 6.1 °F 68% 30.16 in 7.0 mi NW 17.3 mph - 0.00 in Snow Light Snow
7:53 AM 15.1 °F -0.6 °F 6.1 °F 68% 30.23 in 7.0 mi NW 16.1 mph - 0.00 in Snow Light Snow
8:16 AM 16.0 °F -0.4 °F 7.0 °F 68% 30.18 in 2.0 mi NW 18.4 mph - 0.00 in Snow Light Snow
8:27 AM 16.0 °F 0.6 °F 7.0 °F 68% 30.18 in 3.0 mi NW 16.1 mph - 0.00 in Snow Light Snow
8:53 AM 16.0 °F 0.6 °F 6.1 °F 65% 30.25 in 5.0 mi NW 16.1 mph - 0.00 in Snow Light Snow
9:12 AM 17.1 °F 2.5 °F 7.0 °F 65% 30.19 in 2.0 mi NW 15.0 mph - 0.00 in Snow Light Snow
9:27 AM 17.1 °F 1.0 °F 7.0 °F 65% 30.20 in 4.0 mi WNW 18.4 mph - 0.00 in Snow Light Snow
9:53 AM 17.1 °F 2.5 °F 6.1 °F 62% 30.28 in 6.0 mi WNW 15.0 mph - 0.00 in Snow Light Snow
10:24 AM 17.1 °F 2.0 °F 6.1 °F 62% 30.23 in 7.0 mi WNW 16.1 mph - 0.00 in Snow Light Snow
10:42 AM 17.1 °F 3.0 °F 6.1 °F 62% 30.24 in 7.0 mi WNW 13.8 mph - 0.00 in   Mostly Cloudy
10:53 AM 18.0 °F 4.2 °F 5.0 °F 57% 30.30 in 7.0 mi WNW 13.8 mph 21.9 mph 0.00 in   Mostly Cloudy
11:53 AM 19.0 °F 5.0 °F 5.0 °F 54% 30.30 in 7.0 mi WNW 15.0 mph - N/A   Mostly Cloudy
12:41 PM 19.0 °F 4.5 °F 3.0 °F 50% 30.24 in 10.0 mi WNW 16.1 mph - N/A   Mostly Cloudy
12:53 PM 19.0 °F 4.5 °F 3.0 °F 50% 30.31 in 10.0 mi NW 16.1 mph - N/A   Mostly Cloudy
1:53 PM 21.9 °F 7.8 °F 3.0 °F 44% 30.30 in 10.0 mi NW 17.3 mph - N/A   Mostly Cloudy
2:53 PM 23.0 °F 8.3 °F 3.0 °F 42% 30.29 in 10.0 mi WNW 19.6 mph 24.2 mph N/A   Scattered Clouds
3:53 PM 23.0 °F 8.7 °F 3.0 °F 42% 30.30 in 10.0 mi NW 18.4 mph 27.6 mph N/A   Scattered Clouds
4:53 PM 23.0 °F 8.7 °F 5.0 °F 46% 30.30 in 10.0 mi WNW 18.4 mph 21.9 mph N/A   Mostly Cloudy
5:53 PM 21.9 °F 7.3 °F 5.0 °F 48% 30.30 in 10.0 mi NW 18.4 mph - N/A   Scattered Clouds
6:53 PM 21.0 °F 9.3 °F 5.0 °F 50% 30.31 in 10.0 mi WNW 11.5 mph - N/A   Scattered Clouds
7:53 PM 19.0 °F 6.8 °F 3.9 °F 52% 30.33 in 10.0 mi West 11.5 mph - N/A   Partly Cloudy
8:53 PM 18.0 °F 6.9 °F 3.9 °F 54% 30.34 in 10.0 mi West 9.2 mph - N/A   Partly Cloudy
9:53 PM 17.1 °F 5.8 °F 3.0 °F 54% 30.34 in 10.0 mi West 9.2 mph - N/A   Clear
10:53 PM 16.0 °F 5.3 °F 3.0 °F 57% 30.35 in 10.0 mi West 8.1 mph - N/A   Partly Cloudy
11:53 PM 16.0 °F 4.4 °F 3.0 °F 57% 30.36 in 10.0 mi West 9.2 mph - N/A   Clear